PBO Station Position Time Series. Reference Frame : NAM14
Format Version,1.1.0
4-character ID,P275
Station name,KenefikRchCN2006
Begin Date, 2006-07-15
End Date, 2019-10-07
Release Date, 2019-10-08
Reference position, 38.3215290769 North Latitude, -121.2145872379 East Longitude, -5.25051 meters elevation,
Date, North (mm), East (mm), Vertical (mm), North Std. Deviation (mm), East Std. Deviation (mm),              Vertical Std. Deviation (mm), Quality,
2006-07-15,0.00, 0.00, 0.00, 2.06, 1.62, 7.61, repro,
2006-07-16,0.50, -0.24, -8.08, 2.06, 1.63, 7.64, repro,
2006-07-17,1.91, -0.15, -8.52, 2.10, 1.69, 7.91, repro,
2006-07-18,-0.89, -0.15, 1.60, 2.02, 1.59, 7.38, repro,
2006-07-19,-1.52, 0.05, 1.64, 2.02, 1.58, 7.33, repro,
2006-07-20,-0.05, 1.08, -1.92, 2.00, 1.58, 7.29, repro,
2006-07-21,-0.35, 0.81, -6.14, 1.99, 1.60, 7.35, repro,
2006-07-22,-0.01, 1.27, -6.92, 2.00, 1.60, 7.33, repro,
2006-07-23,-0.42, 0.13, -1.49, 2.02, 1.60, 7.37, repro,
2006-07-24,0.52, -0.48, 2.41, 2.00, 1.58, 7.28, repro,
2006-07-25,-0.12, 0.72, -5.16, 2.01, 1.58, 7.28, repro,
2006-07-26,-0.07, 0.24, -3.80, 2.00, 1.58, 7.26, repro,
2006-07-27,0.05, 0.11, -2.20, 1.99, 1.59, 7.27, repro,
2006-07-28,0.07, 0.50, -8.14, 2.01, 1.60, 7.34, repro,
2006-07-29,0.47, -1.35, -14.63, 2.02, 1.59, 7.34, repro,
2006-07-30,-0.40, 1.21, 0.76, 2.05, 1.64, 7.47, repro,
2006-07-31,-1.46, 1.15, 3.18, 2.00, 1.59, 7.31, repro,
2006-08-01,-1.21, 0.55, -0.86, 1.99, 1.58, 7.27, repro,
2006-08-02,0.66, -0.18, -6.67, 2.02, 1.64, 7.56, repro,
2006-08-03,0.10, 0.78, -9.29, 2.07, 1.70, 7.76, repro,
2006-08-04,-0.97, -0.24, -5.14, 2.11, 1.66, 7.76, repro,
2006-08-05,1.15, -0.16, -3.78, 2.08, 1.68, 7.74, repro,
2006-08-06,0.40, -0.15, -8.21, 2.06, 1.65, 7.69, repro,
2006-08-07,0.46, 0.95, -6.47, 2.03, 1.64, 7.60, repro,
2006-08-08,0.44, -0.17, -10.37, 2.05, 1.65, 7.49, repro,
2006-08-09,0.34, 0.31, -5.12, 2.02, 1.60, 7.39, repro,
2006-08-10,0.61, 1.11, -5.14, 2.01, 1.59, 7.33, repro,
2006-08-11,-0.13, 0.16, -6.68, 2.01, 1.59, 7.35, repro,
2006-08-12,-0.68, -0.08, -9.18, 2.01, 1.61, 7.37, repro,
2006-08-13,0.18, 0.58, -10.11, 2.04, 1.64, 7.46, repro,
2006-08-14,-1.96, -0.18, -0.05, 2.06, 1.66, 7.54, repro,
2006-08-15,-0.25, 0.31, -1.52, 2.07, 1.61, 7.45, repro,
2006-08-16,-0.24, 0.16, -5.09, 2.00, 1.59, 7.31, repro,
2006-08-17,-0.61, -0.09, -11.63, 2.05, 1.65, 7.51, repro,
2006-08-18,-0.31, 0.87, -3.73, 2.08, 1.69, 7.62, repro,
2006-08-19,-1.18, -0.20, -4.63, 1.99, 1.59, 7.28, repro,
2006-08-20,-0.06, 0.43, -2.36, 1.98, 1.59, 7.25, repro,
2006-08-21,0.43, 0.29, -6.83, 2.00, 1.62, 7.34, repro,
2006-08-22,-0.98, 0.21, -2.05, 2.00, 1.63, 7.39, repro,
2006-08-23,0.12, 0.96, 1.38, 2.01, 1.62, 7.41, repro,
2006-08-24,-0.66, 0.52, -0.98, 2.00, 1.62, 7.35, repro,
2006-08-25,-0.66, -0.12, 4.37, 2.03, 1.66, 7.62, repro,
2006-08-26,0.05, 0.46, -4.08, 2.05, 1.68, 7.70, repro,
2006-08-27,-0.30, 0.15, -8.63, 2.08, 1.72, 7.92, repro,
2006-08-28,-1.63, -0.34, -6.89, 2.07, 1.71, 7.77, repro,
2006-08-29,-0.35, -0.19, -5.80, 2.08, 1.70, 7.76, repro,
2006-08-30,-0.33, 0.89, -0.71, 2.14, 1.74, 7.98, repro,
2006-08-31,-0.24, -0.12, -4.19, 2.07, 1.71, 7.79, repro,
2006-09-01,-0.20, 0.42, -10.54, 2.13, 1.74, 7.97, repro,
2006-09-02,-0.57, 0.97, -11.28, 2.08, 1.71, 7.84, repro,
2006-09-03,-2.27, -0.68, -4.36, 2.08, 1.71, 7.80, repro,
2006-09-04,-0.02, -0.10, -4.66, 2.14, 1.74, 7.97, repro,
2006-09-05,-0.20, 1.12, -9.86, 2.13, 1.75, 7.96, repro,
2006-09-06,0.76, 0.46, -3.51, 2.08, 1.71, 7.77, repro,
2006-09-07,-0.90, 0.05, -4.60, 2.12, 1.76, 8.08, repro,
2006-09-08,-1.12, -0.84, -5.01, 2.13, 1.75, 8.06, repro,
2006-09-09,-1.75, 0.17, -7.91, 2.05, 1.67, 7.59, repro,
2006-09-10,-0.62, -0.76, -7.44, 2.03, 1.67, 7.52, repro,
2006-09-11,0.09, -0.41, -8.49, 2.05, 1.67, 7.55, repro,
2006-09-12,0.87, 0.10, -8.91, 2.04, 1.66, 7.52, repro,
2006-09-13,-0.34, -0.16, 2.23, 2.06, 1.67, 7.60, repro,
2006-09-14,-0.21, -3.63, -3.34, 2.14, 1.72, 7.84, repro,
2006-09-15,0.04, -0.89, -1.97, 2.09, 1.65, 7.57, repro,
2006-09-16,0.93, -1.17, -3.80, 2.01, 1.62, 7.37, repro,
2006-09-17,-0.18, 0.16, -3.98, 2.00, 1.62, 7.35, repro,
2006-09-18,-0.89, 0.09, 2.11, 2.00, 1.62, 7.36, repro,
2006-09-19,-1.29, 0.29, -2.97, 2.02, 1.64, 7.46, repro,
2006-09-20,-1.88, -1.05, -3.45, 2.02, 1.63, 7.40, repro,
2006-09-21,-0.18, -1.78, -2.06, 2.04, 1.68, 7.60, repro,
2006-09-22,2.38, -1.07, -2.09, 2.15, 1.71, 7.78, repro,
2006-09-23,-0.60, -0.27, -8.50, 2.11, 1.67, 7.58, repro,
2006-09-24,-0.09, 0.16, -2.57, 2.19, 1.72, 7.93, repro,
2006-09-25,-0.48, 0.44, -0.97, 2.14, 1.68, 7.74, repro,
2006-09-26,0.41, 0.09, -6.08, 2.07, 1.65, 7.47, repro,
2006-09-27,0.18, -1.31, -8.18, 2.09, 1.65, 7.51, repro,
2006-09-28,-0.61, -0.21, -9.45, 2.10, 1.69, 7.60, repro,
2006-09-29,-1.23, -0.82, 2.69, 2.08, 1.66, 7.53, repro,
2006-09-30,-0.78, 0.36, 4.98, 2.07, 1.67, 7.66, repro,
2006-10-01,-0.82, -0.74, -1.28, 2.04, 1.64, 7.51, repro,
2006-10-02,0.44, -0.87, -6.86, 2.10, 1.73, 7.72, repro,
2006-10-03,-1.06, -1.42, -6.77, 2.12, 1.74, 7.77, repro,
2006-10-04,0.08, 0.12, -1.64, 2.08, 1.65, 7.49, repro,
2006-10-05,-0.41, -1.09, 2.69, 2.09, 1.67, 7.75, repro,
2006-10-06,0.35, -0.59, -3.54, 2.10, 1.68, 7.77, repro,
2006-10-07,0.00, 0.06, -10.87, 2.12, 1.72, 7.91, repro,
2006-10-08,-0.35, -0.73, -9.29, 2.05, 1.67, 7.55, repro,
2006-10-09,-0.85, -1.17, -7.28, 2.06, 1.67, 7.56, repro,
2006-10-10,-0.99, -0.25, -9.27, 2.03, 1.64, 7.45, repro,
2006-10-11,-1.79, -0.69, -0.03, 2.07, 1.68, 7.67, repro,
2006-10-12,-1.79, 0.23, 2.65, 2.09, 1.66, 7.55, repro,
2006-10-13,-0.92, -0.62, 0.62, 2.03, 1.63, 7.44, repro,
2006-10-14,0.30, -0.43, -3.01, 2.00, 1.64, 7.44, repro,
2006-10-15,-0.04, -1.42, 3.88, 2.01, 1.65, 7.48, repro,
2006-10-16,-0.37, -0.92, 9.89, 2.01, 1.63, 7.44, repro,
2006-10-17,-0.63, -0.91, 4.28, 2.09, 1.71, 7.90, repro,
2006-10-18,-0.26, 0.02, -0.90, 2.09, 1.71, 7.91, repro,
2006-10-19,0.14, -0.11, -1.99, 2.19, 1.73, 8.13, repro,
2006-10-20,0.15, -0.23, -1.55, 2.22, 1.79, 8.63, repro,
2006-10-21,0.17, -0.30, -3.65, 2.23, 1.81, 8.46, repro,
2006-10-22,-1.36, -0.23, -4.92, 2.05, 1.71, 7.75, repro,
2006-10-23,-0.49, -0.28, -8.38, 2.12, 1.75, 8.06, repro,
2006-10-24,-1.12, -0.12, 0.10, 2.24, 1.78, 8.32, repro,
2006-10-25,-0.47, 0.11, 3.31, 2.19, 1.74, 8.14, repro,
2006-10-26,0.25, -0.70, -2.61, 2.05, 1.72, 7.77, repro,
2006-10-27,0.27, -0.43, -6.62, 2.02, 1.68, 7.63, repro,
2006-10-28,-0.71, 0.01, -7.77, 2.11, 1.70, 7.93, repro,
2006-10-29,-0.32, 0.26, 0.51, 2.02, 1.66, 7.59, repro,
2006-10-30,-0.34, -0.38, -0.10, 1.97, 1.62, 7.34, repro,
2006-10-31,-0.82, -1.20, -0.30, 2.00, 1.65, 7.49, repro,
2006-11-01,-0.50, 0.51, -4.61, 2.02, 1.66, 7.58, repro,
2006-11-02,-0.78, 0.01, -5.28, 2.04, 1.69, 7.70, repro,
2006-11-03,-0.39, -0.20, -6.56, 2.02, 1.68, 7.63, repro,
2006-11-04,-0.55, 0.15, -3.40, 2.09, 1.70, 7.74, repro,
2006-11-05,0.88, -0.27, -2.89, 2.07, 1.69, 7.64, repro,
2006-11-06,1.34, -0.61, -6.97, 1.99, 1.64, 7.48, repro,
2006-11-07,2.30, -0.85, -3.17, 2.15, 1.78, 8.10, repro,
2006-11-08,0.39, 0.13, 8.16, 2.10, 1.72, 7.89, repro,
2006-11-09,0.77, -0.15, -0.28, 2.19, 1.84, 8.31, repro,
2006-11-10,0.34, -0.60, -4.62, 2.04, 1.65, 7.55, repro,
2006-11-11,1.09, -0.27, -4.60, 2.11, 1.72, 7.92, repro,
2006-11-12,0.55, -0.62, -4.51, 2.14, 1.76, 7.92, repro,
2006-11-13,1.86, 2.17, -3.30, 2.10, 1.72, 7.78, repro,
2006-11-14,1.82, 0.73, 0.05, 1.99, 1.63, 7.38, repro,
2006-11-15,1.06, -0.16, -2.44, 1.97, 1.62, 7.30, repro,
2006-11-16,-0.15, -0.58, -6.74, 1.98, 1.62, 7.33, repro,
2006-11-17,0.79, -0.53, -0.82, 1.99, 1.62, 7.38, repro,
2006-11-18,1.65, -0.09, -10.93, 1.98, 1.62, 7.31, repro,
2006-11-19,1.33, -0.73, -13.16, 1.98, 1.62, 7.32, repro,
2006-11-20,1.25, 0.56, -3.08, 1.97, 1.62, 7.27, repro,
2006-11-21,1.15, -0.53, -0.61, 1.97, 1.62, 7.27, repro,
2006-11-22,0.93, -0.27, -3.05, 1.97, 1.62, 7.30, repro,
2006-11-23,1.45, 0.06, -7.36, 2.01, 1.67, 7.58, repro,
2006-11-24,1.45, -0.99, -6.93, 2.07, 1.70, 7.70, repro,
2006-11-25,1.07, -0.52, -2.89, 2.01, 1.64, 7.39, repro,
2006-11-26,0.10, -0.96, -1.98, 2.00, 1.64, 7.34, repro,
2006-11-27,0.08, -1.07, -3.81, 2.00, 1.63, 7.38, repro,
2006-11-28,1.51, -0.51, -3.18, 1.97, 1.63, 7.32, repro,
2006-11-29,0.67, 0.07, -2.43, 1.98, 1.63, 7.34, repro,
2006-11-30,1.92, 0.96, -9.43, 1.97, 1.63, 7.37, repro,
2006-12-01,0.87, 1.00, -12.71, 1.96, 1.62, 7.32, repro,
2006-12-02,0.58, -0.70, -10.84, 1.96, 1.61, 7.28, repro,
2006-12-03,0.58, -0.07, -7.16, 1.96, 1.61, 7.28, repro,
2006-12-04,2.13, 0.29, -12.82, 2.01, 1.64, 7.46, repro,
2006-12-05,1.47, -0.22, -8.67, 2.00, 1.69, 7.51, repro,
2006-12-06,1.20, 0.01, -7.36, 2.05, 1.77, 7.70, repro,
2006-12-07,0.91, 0.39, -7.03, 1.98, 1.68, 7.45, repro,
2006-12-08,1.85, -0.50, -8.82, 1.99, 1.69, 7.54, repro,
2006-12-09,1.67, -1.09, -8.19, 2.03, 1.71, 7.62, repro,
2006-12-10,0.33, -1.84, -2.81, 2.04, 1.72, 7.63, repro,
2006-12-11,0.14, -0.59, -4.43, 1.98, 1.66, 7.47, repro,
2006-12-12,1.65, -0.51, -9.48, 2.03, 1.71, 7.57, repro,
2006-12-13,1.61, -0.92, -10.82, 1.96, 1.65, 7.41, repro,
2006-12-14,2.24, -1.08, -6.55, 1.94, 1.64, 7.34, repro,
2006-12-15,2.60, -1.41, -4.75, 2.02, 1.75, 7.68, repro,
2006-12-16,1.69, -0.89, -3.65, 2.08, 1.78, 7.70, repro,
2006-12-17,1.28, -0.79, -4.74, 2.06, 1.81, 7.99, repro,
2006-12-18,1.43, 0.17, -5.81, 2.17, 1.89, 8.38, repro,
2006-12-19,1.06, -0.04, -4.16, 2.05, 1.81, 7.94, repro,
2006-12-20,1.09, -0.10, -10.37, 2.09, 1.83, 7.80, repro,
2006-12-21,0.44, -0.14, -12.79, 1.99, 1.78, 7.59, repro,
2006-12-22,2.64, -0.23, -6.60, 2.11, 1.89, 8.13, repro,
2006-12-23,0.70, -0.50, -12.29, 2.05, 1.77, 7.88, repro,
2006-12-24,1.65, 0.29, -8.92, 1.97, 1.65, 7.38, repro,
2006-12-25,1.44, -0.74, -11.11, 1.99, 1.72, 7.57, repro,
2006-12-26,3.87, -1.01, -11.61, 2.03, 1.73, 7.66, repro,
2006-12-27,2.25, -0.17, -10.38, 2.06, 1.78, 7.79, repro,
2006-12-28,2.25, -0.44, -9.16, 2.29, 2.08, 8.93, repro,
2006-12-29,1.57, -0.15, -16.29, 2.06, 1.76, 7.79, repro,
2006-12-30,2.15, -1.45, -8.41, 2.04, 1.75, 7.75, repro,
2006-12-31,1.74, -1.21, -11.49, 2.21, 1.91, 8.48, repro,
2007-01-01,1.26, -0.19, -11.34, 2.20, 1.91, 8.27, repro,
2007-01-02,0.78, -0.19, -10.61, 2.17, 1.94, 8.36, repro,
2007-01-03,2.48, 0.07, -6.70, 2.03, 1.80, 7.76, repro,
2007-01-04,1.28, -0.48, -0.20, 1.96, 1.68, 7.51, repro,
2007-01-05,2.70, -1.66, -11.47, 2.00, 1.74, 7.62, repro,
2007-01-06,1.40, -0.80, -12.18, 1.98, 1.73, 7.51, repro,
2007-01-07,1.84, -0.40, -15.34, 2.01, 1.67, 7.44, repro,
2007-01-08,1.58, -0.44, -16.09, 2.04, 1.72, 7.60, repro,
2007-01-09,0.86, 0.48, -14.68, 2.01, 1.67, 7.38, repro,
2007-01-10,2.17, 0.33, -9.95, 2.01, 1.66, 7.39, repro,
2007-01-11,-0.06, -0.49, -6.58, 2.06, 1.66, 7.50, repro,
2007-01-12,1.59, -0.88, -10.43, 1.97, 1.62, 7.28, repro,
2007-01-13,1.43, 0.61, -15.39, 1.94, 1.61, 7.12, repro,
2007-01-14,0.92, 0.15, -17.10, 1.94, 1.60, 7.09, repro,
2007-01-15,1.25, -0.45, -16.15, 1.94, 1.61, 7.18, repro,
2007-01-16,0.89, -0.72, -17.09, 1.97, 1.61, 7.18, repro,
2007-01-17,0.98, -1.59, -13.29, 1.96, 1.64, 7.28, repro,
2007-01-18,0.65, -0.17, -19.01, 2.01, 1.69, 7.47, repro,
2007-01-19,0.92, 0.65, -11.27, 2.01, 1.62, 7.44, repro,
2007-01-20,0.99, 0.12, -10.19, 1.99, 1.62, 7.42, repro,
2007-01-21,1.61, -0.43, -11.10, 1.94, 1.60, 7.11, repro,
2007-01-22,1.32, -0.12, -11.03, 1.94, 1.60, 7.11, repro,
2007-01-23,0.44, -0.28, -16.77, 1.94, 1.60, 7.09, repro,
2007-01-24,0.80, 0.86, -17.57, 1.94, 1.61, 7.13, repro,
2007-01-25,0.09, 0.46, -17.25, 1.98, 1.63, 7.16, repro,
2007-01-26,0.70, -0.88, -11.97, 1.93, 1.60, 7.11, repro,
2007-01-27,0.05, -1.21, -11.36, 1.93, 1.60, 7.06, repro,
2007-01-28,0.12, 0.64, -10.77, 1.94, 1.59, 7.03, repro,
2007-01-29,-0.54, 0.62, -12.04, 1.94, 1.59, 7.02, repro,
2007-01-30,0.05, -0.08, -7.22, 1.94, 1.59, 7.04, repro,
2007-01-31,-0.29, -0.38, -8.19, 1.93, 1.60, 7.07, repro,
2007-02-01,-0.43, -0.03, -7.17, 1.97, 1.63, 7.24, repro,
2007-02-02,-0.33, 0.27, -11.79, 1.96, 1.60, 7.17, repro,
2007-02-03,0.66, 0.58, -12.13, 1.98, 1.61, 7.22, repro,
2007-02-04,-0.02, 0.24, -12.25, 1.92, 1.59, 7.03, repro,
2007-02-05,0.38, 0.56, -15.50, 1.93, 1.60, 7.07, repro,
2007-02-06,0.33, 0.19, -19.58, 1.98, 1.60, 7.15, repro,
2007-02-07,0.42, 0.03, -4.95, 1.93, 1.60, 7.08, repro,
2007-02-08,0.25, -0.45, -11.88, 1.96, 1.65, 7.28, repro,
2007-02-09,0.86, 0.96, -9.87, 1.96, 1.65, 7.24, repro,
2007-02-10,0.99, -0.21, -9.19, 1.95, 1.61, 7.12, repro,
2007-02-11,2.62, 0.55, -10.36, 2.02, 1.72, 7.53, repro,
2007-02-12,1.04, 0.53, -15.91, 1.93, 1.59, 7.03, repro,
2007-02-13,0.64, 0.56, -14.11, 1.93, 1.59, 7.05, repro,
2007-02-14,1.24, 0.60, -14.84, 1.92, 1.60, 7.06, repro,
2007-02-15,1.59, 1.18, -16.04, 1.94, 1.60, 7.07, repro,
2007-02-16,0.54, 1.65, -11.84, 1.93, 1.59, 7.04, repro,
2007-02-17,0.48, 0.96, -9.53, 1.97, 1.64, 7.20, repro,
2007-02-18,0.50, 0.78, -7.04, 1.93, 1.60, 7.09, repro,
2007-02-19,-0.02, 0.37, -3.27, 1.94, 1.60, 7.15, repro,
2007-02-20,0.51, 0.57, -5.64, 1.95, 1.61, 7.17, repro,
2007-02-21,0.07, 1.46, -2.92, 1.93, 1.59, 7.06, repro,
2007-02-22,-1.33, 1.97, -3.96, 1.97, 1.65, 7.24, repro,
2007-02-23,0.49, 1.15, -0.80, 2.02, 1.67, 7.38, repro,
2007-02-24,0.87, 0.15, -8.51, 1.93, 1.59, 7.05, repro,
2007-02-25,0.83, 0.44, -11.84, 1.95, 1.60, 7.20, repro,
2007-02-26,0.20, 1.29, -6.15, 1.94, 1.59, 7.06, repro,
2007-02-27,-0.42, 1.93, 0.05, 1.95, 1.60, 7.14, repro,
2007-02-28,-0.24, 0.56, -3.88, 1.93, 1.59, 7.03, repro,
2007-03-01,0.12, 1.23, -8.36, 1.99, 1.66, 7.35, repro,
2007-03-02,0.82, 0.69, -10.32, 1.99, 1.66, 7.35, repro,
2007-03-03,0.39, 0.70, -14.96, 1.96, 1.63, 7.25, repro,
2007-03-04,0.02, 2.21, -14.27, 1.95, 1.63, 7.19, repro,
2007-03-05,0.28, 1.97, -7.40, 1.98, 1.64, 7.28, repro,
2007-03-06,0.49, 1.28, -9.40, 1.96, 1.64, 7.25, repro,
2007-03-07,0.09, -0.37, -3.86, 1.96, 1.64, 7.25, repro,
2007-03-08,-0.15, 0.88, -6.30, 1.96, 1.64, 7.26, repro,
2007-03-09,-0.06, 0.52, -9.06, 1.98, 1.63, 7.28, repro,
2007-03-10,0.17, 1.21, -12.53, 2.03, 1.67, 7.49, repro,
2007-03-11,0.32, 0.80, -9.52, 1.98, 1.64, 7.31, repro,
2007-03-12,0.91, 0.87, -5.00, 1.97, 1.64, 7.30, repro,
2007-03-13,-0.24, 1.21, -9.81, 1.93, 1.59, 7.06, repro,
2007-03-14,-0.11, 2.08, -7.94, 1.93, 1.59, 7.07, repro,
2007-03-15,-0.43, 1.65, -10.75, 1.98, 1.61, 7.17, repro,
2007-03-16,0.31, 1.50, -10.13, 1.97, 1.61, 7.19, repro,
2007-03-17,0.85, 0.62, -2.24, 1.95, 1.58, 7.09, repro,
2007-03-18,-0.61, 1.72, 0.36, 1.96, 1.62, 7.20, repro,
2007-03-19,0.19, 0.61, -3.74, 2.00, 1.66, 7.32, repro,
2007-03-20,-0.72, 0.70, 7.61, 2.01, 1.61, 7.22, repro,
2007-03-21,0.29, 0.77, 4.13, 2.06, 1.66, 7.48, repro,
2007-03-22,0.07, 0.05, -3.96, 1.96, 1.59, 7.18, repro,
2007-03-23,-0.51, -0.33, 0.78, 1.94, 1.57, 7.02, repro,
2007-03-24,-0.34, 0.10, 0.35, 1.97, 1.62, 7.25, repro,
2007-03-25,-0.73, 0.26, 3.13, 1.95, 1.59, 7.10, repro,
2007-03-26,-1.39, 0.12, -4.38, 1.96, 1.60, 7.17, repro,
2007-03-27,0.26, 1.95, -10.88, 2.03, 1.65, 7.40, repro,
2007-03-28,-0.59, 1.17, -7.11, 2.00, 1.60, 7.20, repro,
2007-03-29,-1.00, 0.66, -6.81, 1.95, 1.58, 7.08, repro,
2007-03-30,-0.30, 0.70, -8.59, 1.95, 1.58, 7.06, repro,
2007-03-31,-0.51, 2.18, -5.82, 1.94, 1.58, 7.03, repro,
2007-04-01,-0.23, 1.15, -4.05, 1.94, 1.59, 7.08, repro,
2007-04-02,-0.68, 1.29, -4.96, 1.96, 1.58, 7.08, repro,
2007-04-03,-0.32, 1.61, -8.98, 1.97, 1.62, 7.23, repro,
2007-04-04,-0.04, 0.82, -5.75, 2.03, 1.69, 7.46, repro,
2007-04-05,-1.52, 0.62, -5.11, 2.05, 1.74, 7.55, repro,
2007-04-06,-1.52, 1.45, -10.33, 2.00, 1.67, 7.38, repro,
2007-04-07,-0.77, 0.61, -4.08, 1.99, 1.61, 7.18, repro,
2007-04-08,-1.52, -0.67, -5.20, 1.96, 1.57, 7.06, repro,
2007-04-09,-0.04, 0.73, -6.42, 1.96, 1.57, 7.07, repro,
2007-04-10,0.69, 0.63, -3.97, 2.00, 1.62, 7.24, repro,
2007-04-11,-1.05, -0.94, 2.50, 1.95, 1.59, 7.08, repro,
2007-04-12,-0.73, -0.25, -5.33, 1.95, 1.59, 7.11, repro,
2007-04-13,-0.32, 0.82, -4.61, 1.96, 1.58, 7.08, repro,
2007-04-14,0.57, 0.46, -8.29, 1.97, 1.58, 7.12, repro,
2007-04-15,-0.13, 0.68, -3.55, 1.96, 1.58, 7.09, repro,
2007-04-16,-0.14, 0.59, -4.41, 1.95, 1.58, 7.05, repro,
2007-04-17,-2.27, -0.38, -6.08, 1.96, 1.59, 7.14, repro,
2007-04-18,-0.61, -0.00, -7.15, 1.96, 1.59, 7.12, repro,
2007-04-19,0.33, -0.19, -7.68, 1.97, 1.57, 7.08, repro,
2007-04-20,-0.33, -0.02, -3.04, 1.95, 1.57, 7.06, repro,
2007-04-21,-0.61, 1.42, -4.93, 1.96, 1.58, 7.10, repro,
2007-04-22,-0.27, 1.33, -4.28, 1.96, 1.58, 7.11, repro,
2007-04-23,-0.15, 0.14, -6.62, 1.99, 1.61, 7.25, repro,
2007-04-24,0.47, 1.41, -11.57, 2.00, 1.60, 7.21, repro,
2007-04-25,0.22, -0.08, -4.67, 1.99, 1.60, 7.15, repro,
2007-04-26,-0.05, 0.45, -8.30, 1.96, 1.58, 7.10, repro,
2007-04-27,-0.20, 1.04, -7.74, 1.95, 1.58, 7.11, repro,
2007-04-28,-0.38, 1.09, -11.05, 1.97, 1.58, 7.14, repro,
2007-04-29,0.21, 1.30, -7.75, 1.97, 1.58, 7.11, repro,
2007-04-30,0.17, -0.47, -6.65, 1.97, 1.57, 7.09, repro,
2007-05-01,-0.87, 0.73, -2.06, 1.96, 1.56, 7.05, repro,
2007-05-02,-1.45, 1.43, -9.73, 2.03, 1.59, 7.38, repro,
2007-05-03,0.48, 0.37, -7.05, 2.09, 1.63, 7.52, repro,
2007-05-04,-0.26, 0.50, -0.48, 1.96, 1.56, 7.05, repro,
2007-05-05,-0.52, -0.38, -5.25, 2.01, 1.62, 7.22, repro,
2007-05-06,0.33, -0.41, -7.94, 1.98, 1.56, 7.11, repro,
2007-05-07,0.75, 1.36, -12.06, 1.98, 1.57, 7.14, repro,
2007-05-08,-0.41, 0.27, -8.68, 1.98, 1.58, 7.21, repro,
2007-05-09,0.82, 0.15, -12.29, 1.97, 1.56, 7.13, repro,
2007-05-10,0.03, -0.62, -8.47, 2.13, 1.68, 7.67, repro,
2007-05-11,-0.03, 0.28, -7.64, 2.08, 1.64, 7.54, repro,
2007-05-12,-0.48, -0.31, -6.73, 1.98, 1.56, 7.10, repro,
2007-05-13,0.89, 0.50, -9.36, 2.01, 1.60, 7.24, repro,
2007-05-14,-0.49, 0.92, -9.74, 2.00, 1.59, 7.19, repro,
2007-05-15,0.51, 0.56, -11.13, 1.99, 1.57, 7.12, repro,
2007-05-16,0.64, 1.02, -8.73, 1.99, 1.57, 7.10, repro,
2007-05-17,0.01, -0.47, -3.09, 2.02, 1.61, 7.28, repro,
2007-05-18,-0.43, 0.50, -8.03, 2.04, 1.64, 7.35, repro,
2007-05-19,-2.08, 0.70, -8.75, 2.01, 1.61, 7.22, repro,
2007-05-20,0.59, 0.60, -6.19, 2.05, 1.65, 7.37, repro,
2007-05-21,-0.05, -0.17, -1.10, 2.02, 1.61, 7.25, repro,
2007-05-22,0.10, 1.06, -4.88, 2.03, 1.61, 7.26, repro,
2007-05-23,-0.01, 0.25, -4.81, 2.00, 1.60, 7.17, repro,
2007-05-24,-0.51, 0.00, -5.85, 2.09, 1.69, 7.52, repro,
2007-05-25,-0.81, 0.18, -4.71, 1.98, 1.58, 7.10, repro,
2007-05-26,0.19, 0.80, -4.73, 2.03, 1.62, 7.27, repro,
2007-05-27,0.07, 0.13, -7.34, 2.04, 1.63, 7.28, repro,
2007-05-28,-2.34, 1.84, -4.04, 2.00, 1.58, 7.11, repro,
2007-05-29,-0.19, 0.04, -3.99, 1.99, 1.56, 7.02, repro,
2007-05-30,-1.88, -0.42, -5.77, 2.03, 1.57, 7.13, repro,
2007-05-31,-0.27, 0.04, -8.42, 2.03, 1.61, 7.24, repro,
2007-06-01,0.50, 0.18, -8.48, 2.00, 1.59, 7.17, repro,
2007-06-02,-0.20, -0.12, -7.99, 1.99, 1.58, 7.14, repro,
2007-06-03,-0.93, 0.40, -8.38, 1.99, 1.57, 7.10, repro,
2007-06-04,-1.41, 0.29, -5.37, 1.96, 1.55, 7.00, repro,
2007-06-05,-0.61, 0.19, 2.17, 2.03, 1.59, 7.24, repro,
2007-06-06,0.21, -0.69, 4.60, 1.99, 1.59, 7.16, repro,
2007-06-07,1.13, -0.16, -2.04, 2.00, 1.60, 7.21, repro,
2007-06-08,-0.10, -0.01, -5.10, 1.99, 1.57, 7.12, repro,
2007-06-09,-0.85, 0.86, -8.10, 1.98, 1.60, 7.12, repro,
2007-06-10,-2.26, -0.27, -1.60, 2.00, 1.59, 7.20, repro,
2007-06-11,0.35, -0.06, -6.36, 2.02, 1.68, 7.33, repro,
2007-06-12,1.00, 1.21, -6.64, 2.04, 1.69, 7.41, repro,
2007-06-13,-0.55, 0.88, -6.02, 2.04, 1.63, 7.30, repro,
2007-06-14,-0.10, 1.36, -10.77, 2.02, 1.61, 7.18, repro,
2007-06-15,-1.17, 0.36, -2.73, 1.97, 1.57, 7.06, repro,
2007-06-16,-0.74, -0.74, -3.72, 1.96, 1.58, 7.05, repro,
2007-06-17,-0.49, -0.01, -5.52, 1.97, 1.58, 7.10, repro,
2007-06-18,0.36, 1.54, -1.40, 1.98, 1.58, 7.12, repro,
2007-06-19,-0.42, -0.48, -9.61, 1.98, 1.58, 7.12, repro,
2007-06-20,-0.22, 0.55, -12.53, 1.97, 1.57, 7.11, repro,
2007-06-21,0.51, 0.23, -8.08, 1.96, 1.57, 7.06, repro,
2007-06-22,-0.03, -0.21, -9.93, 1.97, 1.59, 7.16, repro,
2007-06-23,0.58, 0.73, -10.00, 1.99, 1.58, 7.14, repro,
2007-06-24,-0.17, -0.98, -11.25, 2.02, 1.61, 7.34, repro,
2007-06-25,0.05, 0.08, -7.39, 1.97, 1.57, 7.09, repro,
2007-06-26,1.11, 0.33, -8.66, 1.98, 1.57, 7.13, repro,
2007-06-27,0.38, 0.69, -15.41, 1.96, 1.57, 7.09, repro,
2007-06-28,-1.16, 1.46, -12.29, 1.98, 1.59, 7.21, repro,
2007-06-29,-1.05, 1.31, -7.39, 2.00, 1.58, 7.20, repro,
2007-06-30,-0.69, 0.33, -9.93, 2.00, 1.57, 7.19, repro,
2007-07-01,0.21, -0.11, -7.91, 1.97, 1.57, 7.10, repro,
2007-07-02,-0.04, 0.10, -3.05, 1.96, 1.57, 7.06, repro,
2007-07-03,-0.45, 0.81, -11.89, 1.97, 1.59, 7.21, repro,
2007-07-04,-0.83, 1.22, -13.60, 1.99, 1.59, 7.22, repro,
2007-07-05,-0.02, -0.10, -13.09, 2.00, 1.58, 7.23, repro,
2007-07-06,0.54, 0.30, -14.89, 1.98, 1.57, 7.14, repro,
2007-07-07,-1.37, 0.07, -11.68, 1.96, 1.57, 7.06, repro,
2007-07-08,-2.09, -0.54, -4.67, 1.95, 1.57, 7.03, repro,
2007-07-09,-0.99, 0.48, -6.90, 1.99, 1.60, 7.22, repro,
2007-07-10,0.06, -0.02, -15.51, 1.99, 1.58, 7.19, repro,
2007-07-11,0.08, 0.59, -11.93, 2.01, 1.59, 7.23, repro,
2007-07-12,-0.30, 0.95, -12.44, 2.00, 1.63, 7.24, repro,
2007-07-13,-0.80, 0.10, -10.52, 1.99, 1.63, 7.20, repro,
2007-07-14,-0.76, 2.05, -12.38, 1.99, 1.63, 7.22, repro,
2007-07-15,1.33, 1.25, -13.93, 2.03, 1.65, 7.40, repro,
2007-07-16,0.17, 1.02, -11.84, 2.00, 1.59, 7.19, repro,
2007-07-17,0.13, 0.74, -0.35, 1.99, 1.58, 7.18, repro,
2007-07-18,-0.89, -1.28, -3.86, 1.97, 1.57, 7.10, repro,
2007-07-19,-0.22, 0.45, -9.90, 1.96, 1.57, 7.04, repro,
2007-07-20,0.66, 0.17, -7.48, 2.02, 1.64, 7.35, repro,
2007-07-21,0.53, 0.33, -7.74, 2.04, 1.66, 7.46, repro,
2007-07-22,-0.09, 0.20, -15.02, 2.04, 1.65, 7.41, repro,
2007-07-23,-0.22, 0.24, -5.89, 2.03, 1.64, 7.39, repro,
2007-07-24,2.37, 1.42, -1.17, 2.00, 1.60, 7.24, repro,
2007-07-25,-0.89, 0.12, -4.65, 1.99, 1.58, 7.12, repro,
2007-07-26,0.76, 0.17, -7.91, 2.00, 1.58, 7.18, repro,
2007-07-27,0.70, -0.59, -8.29, 2.05, 1.67, 7.53, repro,
2007-07-28,-0.60, -0.30, -8.99, 2.02, 1.65, 7.38, repro,
2007-07-29,-0.05, 0.18, -3.32, 2.03, 1.65, 7.40, repro,
2007-07-30,-1.02, 0.41, -4.36, 1.98, 1.58, 7.13, repro,
2007-07-31,0.07, -0.37, -11.41, 1.97, 1.58, 7.08, repro,
2007-08-01,-0.37, 1.13, 5.11, 1.99, 1.58, 7.16, repro,
2007-08-02,-0.58, -0.13, -2.59, 1.99, 1.60, 7.22, repro,
2007-08-03,-0.37, 0.49, 3.47, 1.97, 1.57, 7.10, repro,
2007-08-04,-1.08, 0.34, -0.55, 1.97, 1.58, 7.11, repro,
2007-08-05,0.06, 0.89, -1.34, 2.02, 1.59, 7.24, repro,
2007-08-06,-0.10, 1.06, -3.23, 2.01, 1.63, 7.33, repro,
2007-08-07,-0.07, 0.86, 0.32, 2.01, 1.62, 7.29, repro,
2007-08-08,-0.31, 0.10, -4.42, 1.98, 1.59, 7.18, repro,
2007-08-09,-0.45, -0.81, 0.45, 1.97, 1.57, 7.07, repro,
2007-08-10,-0.65, 0.65, 0.46, 1.97, 1.58, 7.09, repro,
2007-08-11,-0.64, 2.15, -3.25, 1.97, 1.57, 7.07, repro,
2007-08-12,-0.14, 0.87, -4.06, 1.98, 1.57, 7.11, repro,
2007-08-13,-0.41, -0.15, -2.60, 1.98, 1.57, 7.09, repro,
2007-08-14,0.94, -1.03, -4.46, 2.09, 1.69, 7.47, repro,
2007-08-15,0.33, 0.10, -3.84, 2.10, 1.70, 7.50, repro,
2007-08-16,-0.82, -2.15, -1.49, 2.06, 1.65, 7.46, repro,
2007-08-17,-0.83, 0.01, -4.93, 2.06, 1.64, 7.42, repro,
2007-08-18,-0.51, 0.62, -4.93, 2.08, 1.67, 7.65, repro,
2007-08-19,1.83, -0.59, -3.66, 2.09, 1.68, 7.66, repro,
2007-08-20,0.01, -1.01, 2.07, 2.05, 1.63, 7.40, repro,
2007-08-21,-0.57, -0.06, -3.69, 2.09, 1.64, 7.46, repro,
2007-08-22,0.03, -0.42, -6.19, 2.07, 1.63, 7.38, repro,
2007-08-23,-0.64, -0.15, 1.05, 2.04, 1.59, 7.28, repro,
2007-08-24,0.23, -0.24, -0.88, 2.14, 1.67, 7.63, repro,
2007-08-25,-0.33, -0.63, -2.58, 2.06, 1.65, 7.43, repro,
2007-08-26,-0.20, -1.01, 4.56, 2.09, 1.69, 7.60, repro,
2007-08-27,-1.22, -1.27, -1.07, 2.11, 1.71, 7.65, repro,
2007-08-28,-0.22, 0.28, 2.53, 2.09, 1.67, 7.58, repro,
2007-08-29,-0.34, -0.06, -2.25, 2.09, 1.66, 7.53, repro,
2007-08-30,-0.33, -0.31, -1.17, 2.07, 1.66, 7.49, repro,
2007-08-31,-0.99, -0.12, -3.53, 2.07, 1.66, 7.44, repro,
2007-09-01,-0.11, -2.10, -1.78, 2.07, 1.66, 7.43, repro,
2007-09-02,-2.05, -0.62, -4.89, 2.06, 1.65, 7.40, repro,
2007-09-03,0.39, -1.30, -2.73, 2.09, 1.67, 7.56, repro,
2007-09-04,0.64, -3.21, 0.36, 2.09, 1.67, 7.57, repro,
2007-09-05,0.35, -1.35, 2.25, 2.10, 1.71, 7.65, repro,
2007-09-06,0.20, -1.35, 3.88, 2.06, 1.65, 7.43, repro,
2007-09-07,-0.61, -1.03, 1.07, 2.07, 1.65, 7.44, repro,